{"data":{"norad_id":41473,"intl_designator":"2016-029A","name":"YAOGAN-30 01","alt_names":[],"object_type":"PAYLOAD","status":"ACTIVE","operator":null,"country":"PRC","launch_date":"2016-05-15","launch_site_code":"JSC","launch_vehicle":null,"mission":null,"orbit_class":"UNKNOWN","rcs_meters":3.7059,"size_class":null,"mass_kg":null,"dimensions":null,"purposes":[],"wikipedia_slug":null,"has_3d_model":false,"image_url":null,"decayed_at":null,"tle_current":{"epoch":"2026-05-25T04:17:23.055648Z","epoch_age_seconds":53490,"freshness":"FRESH","line1":"1 41473U 16029A   26145.17873907  .00000645  00000+0  10034-3 0  9992","line2":"2 41473  97.9026 195.5734 0014473 311.5154  48.4813 14.76238523540274","mean_motion":14.76238523,"eccentricity":0.0014473,"inclination_deg":97.9026,"raan_deg":195.5734,"arg_perigee_deg":311.5154,"mean_anomaly_deg":48.4813,"bstar":0.00010034,"rev_number":54027,"period_min":97.54521221094,"perigee_km":631.06337434241,"apogee_km":651.38161233182,"semimajor_km":7019.3594933371,"source":"CELESTRAK","updated_at":"2026-05-25T13:37:55.617053Z"}}}